Teesside, United Kingdom

10:31 PM BST on August 24, 2016 (GMT +0100)
Teesside

Weather History for EGNV - May, 2013

Change the Weather History Date:

Thursday, May 30, 2013

  Actual Average Record
Temperature  
Mean Temperature 52 °F -  
Max Temperature 55 °F 63 °F 75 °F (1997)
Min Temperature 50 °F 47 °F 35 °F (2000)
Degree Days  
Heating Degree Days 12    
Growing Degree Days 2 (Base 50)    
Moisture  
Dew Point 49 °F    
Average Humidity 90    
Maximum Humidity 94    
Minimum Humidity 82    
Precipitation  
Precipitation 0.00 in - - ()
Sea Level Pressure  
Sea Level Pressure 29.95 in    
Wind  
Wind Speed 13 mph ()    
Max Wind Speed 20 mph    
Max Gust Speed -    
Visibility 2.9 miles    
Events Rain    
Averages and records for this station are not official NWS values.
T = Trace of Precipitation, MM = Missing Value Source: Averaged Metar Reports

Daily Weather History Graph

Daily Weather History Graph

Search for Another Location

Airport or City:

Trip Planner

Search our weather history database for the weather conditions in past years. The results will help you decide how hot, cold, wet, or windy it might be!

Date:

Astronomy

May. 30, 2013 Rise Set
Actual Time 4:39 AM BST 9:28 PM BST
Civil Twilight 3:47 AM BST 10:20 PM BST
Nautical Twilight 2:19 AM BST 11:50 PM BST
Astronomical Twilight Sun does not set Sun does not set
Moon 12:46 AM BST (5/30) 11:08 AM BST (5/30)
Length of Visible Light 18h 32m
Length of Day
16h 48m
Waning Gibbous, 65% of the Moon is Illuminated
May 30
Waning Gibbous
May 31
Last Quarter
Jun 8
New
Jun 16
First Quarter
Jun 23
Full

Hourly Weather History & Observations

Time (BST) Temp. Dew Point Humidity Pressure Visibility Wind Dir Wind Speed Gust Speed Precip Events Conditions
5:50 AM 50.0 °F 48.2 °F 94% 29.83 in 3.1 mi North 15.0 mph - N/A Rain Light Rain
6:20 AM 50.0 °F 46.4 °F 87% 29.86 in 4.3 mi North 15.0 mph - N/A Rain Light Rain
6:50 AM 50.0 °F 46.4 °F 87% 29.86 in 5.0 mi North 16.1 mph - N/A Rain Light Rain
7:20 AM 50.0 °F 46.4 °F 87% 29.86 in 5.0 mi North 16.1 mph - N/A Rain Light Rain
7:50 AM 50.0 °F 48.2 °F 94% 29.86 in 5.0 mi North 18.4 mph - N/A Rain Light Rain
8:20 AM 51.8 °F 48.2 °F 88% 29.86 in 5.0 mi North 16.1 mph - N/A   Mostly Cloudy
8:50 AM 50.0 °F 48.2 °F 94% 29.86 in 2.5 mi North 16.1 mph - N/A Rain Light Rain
9:20 AM 50.0 °F 48.2 °F 94% 29.89 in 5.0 mi North 18.4 mph - N/A   Mostly Cloudy
9:50 AM 50.0 °F 48.2 °F 94% 29.89 in 3.7 mi North 19.6 mph - N/A   Overcast
10:20 AM 50.0 °F 48.2 °F 94% 29.92 in 1.2 mi North 17.3 mph - N/A   Haze
10:50 AM 50.0 °F 48.2 °F 94% 29.92 in 1.2 mi North 15.0 mph - N/A Rain Light Rain
11:20 AM 50.0 °F 48.2 °F 94% 29.92 in 1.5 mi North 11.5 mph - N/A Rain Light Rain
11:50 AM 50.0 °F 48.2 °F 94% 29.92 in 1.6 mi North 11.5 mph - N/A Rain Light Rain
12:20 PM 51.8 °F 50.0 °F 94% 29.95 in 1.6 mi North 13.8 mph - N/A Rain Light Rain
12:50 PM 51.8 °F 50.0 °F 94% 29.95 in - North 15.0 mph - N/A   Haze
1:20 PM 51.8 °F 50.0 °F 94% 29.95 in 1.6 mi North 12.7 mph - N/A Rain Light Rain
1:50 PM 51.8 °F 50.0 °F 94% 29.95 in 1.6 mi North 16.1 mph - N/A   Haze
2:20 PM 51.8 °F 50.0 °F 94% 29.98 in 1.9 mi North 16.1 mph - N/A   Haze
2:50 PM 51.8 °F 50.0 °F 94% 29.98 in 2.2 mi North 17.3 mph - N/A   Haze
3:20 PM 53.6 °F 50.0 °F 88% 29.98 in - North 15.0 mph - N/A   Haze
3:50 PM 53.6 °F 50.0 °F 88% 29.98 in 2.5 mi North 15.0 mph - N/A   Haze
4:20 PM 53.6 °F 50.0 °F 88% 29.98 in 3.1 mi North 15.0 mph - N/A   Haze
4:50 PM 53.6 °F 50.0 °F 88% 29.98 in 3.1 mi North 13.8 mph - N/A   Mostly Cloudy
5:20 PM 53.6 °F 50.0 °F 88% 30.01 in 3.7 mi North 13.8 mph - N/A   Mostly Cloudy
5:50 PM 53.6 °F 50.0 °F 88% 30.01 in 3.7 mi North 13.8 mph - N/A   Mostly Cloudy
6:20 PM 55.4 °F 50.0 °F 82% 30.01 in 3.7 mi NNE 11.5 mph - N/A   Mostly Cloudy
6:50 PM 53.6 °F 50.0 °F 88% 30.01 in 3.7 mi NNW 11.5 mph - N/A   Mostly Cloudy
7:20 PM 53.6 °F 50.0 °F 88% 30.01 in 2.8 mi North 11.5 mph - N/A   Haze
7:50 PM 53.6 °F 50.0 °F 88% 30.04 in 2.2 mi North 9.2 mph - N/A   Haze
8:20 PM 53.6 °F 50.0 °F 88% 30.04 in 2.2 mi North 8.1 mph - N/A   Haze
8:50 PM 53.6 °F 50.0 °F 88% 30.04 in 2.5 mi North 8.1 mph - N/A   Haze
9:20 PM 53.6 °F 50.0 °F 88% 30.06 in 2.5 mi North 9.2 mph - N/A   Haze
9:50 PM 53.6 °F 50.0 °F 88% 30.06 in 2.5 mi North 9.2 mph - N/A   Haze